EW8484 Weather Reports


Display with metric or nautical units.
time (UTC)temp
F
wind
direction
speed
MPH
gust
MPH
rain 1hr
in
rain 24hr
in
rain mn
in
humidity
%
barometer
mb
20260507095527 46 0.0 0.0 0.01 0.29 0.05 49 1009.6
20260507095027 46 0.0 0.0 0.01 0.29 0.05 49 1009.5
20260507094547 47 0.0 0.0 0.01 0.29 0.05 49 1009.6
20260507094027 47 0.0 1.0 0.00 0.28 0.04 49 1009.5
20260507093527 47 0.0 1.0 0.00 0.28 0.04 49 1009.6
20260507093047 47 346 1.0 2.0 0.00 0.28 0.04 49 1009.4
20260507092527 47 0.0 1.0 0.00 0.28 0.04 49 1009.8
20260507092026 47 0.0 1.0 0.00 0.28 0.04 49 1009.7
20260507091547 47 0.0 1.0 0.00 0.28 0.04 49 1009.7
20260507091026 47 0.0 1.0 0.00 0.28 0.04 49 1009.5
20260507090527 47 0.0 1.0 0.00 0.28 0.04 49 1009.7
20260507090047 47 346 1.0 2.0 0.00 0.28 0.04 49 1009.8
20260507085546 47 0.0 1.0 0.00 0.28 0.04 49 1009.8
20260507085026 47 346 1.0 3.0 0.00 0.28 0.04 49 1009.7
20260507084527 47 0.0 0.0 0.00 0.28 0.04 49 1010.1
20260507084026 47 0.0 1.0 0.01 0.28 0.04 48 1010.0
20260507083526 48 0.0 0.0 0.01 0.28 0.04 48 1009.9
20260507083027 48 0.0 0.0 0.01 0.28 0.04 48 1010.2
20260507082527 48 0.0 0.0 0.01 0.28 0.04 48 1010.3
20260507082026 48 0.0 0.0 0.01 0.28 0.04 48 1010.3
20260507081546 48 0.0 1.0 0.01 0.28 0.04 48 1010.1
20260507081026 48 0.0 1.0 0.01 0.28 0.04 48 1010.0
20260507080526 48 0.0 0.0 0.01 0.28 0.04 48 1010.1
20260507080026 48 346 1.0 4.0 0.01 0.28 0.04 48 1009.8
20260507075546 48 0.0 4.0 0.01 0.28 0.04 48 1009.7
20260507075107 49 0.0 0.0 0.01 0.28 0.04 48 1009.8
20260507074526 49 0.0 0.0 0.01 0.28 0.04 48 1009.6
20260507074027 49 0.0 0.0 0.00 0.27 0.03 48 1009.8
20260507073526 49 0.0 0.0 0.00 0.27 0.03 48 1010.0
20260507073027 49 0.0 0.0 0.00 0.27 0.03 48 1009.8
20260507072627 49 0.0 0.0 0.00 0.27 0.03 48 1009.8
20260507072047 49 0.0 0.0 0.00 0.27 0.03 48 1009.8
20260507071546 49 0.0 0.0 0.00 0.27 0.03 48 1009.3
20260507071026 49 0.0 0.0 0.00 0.27 0.03 48 1009.1
20260507070526 49 0.0 0.0 0.01 0.27 0.03 48 1009.7
20260507070027 49 0.0 0.0 0.01 0.27 0.03 48 1009.7
20260507065547 49 0.0 0.0 0.01 0.27 0.03 48 1009.8
20260507065046 50 0.0 0.0 0.01 0.27 0.03 48 1009.8
20260507064526 50 0.0 0.0 0.01 0.27 0.03 48 1009.6
20260507064026 50 0.0 0.0 0.01 0.27 0.03 48 1009.5
20260507063526 50 0.0 0.0 0.01 0.27 0.03 48 1009.4
20260507063107 50 0.0 0.0 0.01 0.27 0.03 48 1009.2
20260507062546 50 0.0 0.0 0.01 0.27 0.03 48 1009.0
20260507062026 50 0.0 0.0 0.01 0.27 0.03 48 1009.0
20260507061526 50 0.0 0.0 0.01 0.27 0.03 48 1008.8
20260507061026 50 0.0 0.0 0.01 0.27 0.03 48 1008.9
20260507060526 50 0.0 0.0 0.00 0.26 0.02 48 1009.0
20260507060026 50 0.0 0.0 0.00 0.26 0.02 48 1009.1
20260507055526 50 0.0 0.0 0.00 0.26 0.02 48 1009.4
20260507055047 50 0.0 0.0 0.00 0.26 0.02 48 1009.3
20260507054607 50 0.0 0.0 0.00 0.26 0.02 48 1009.5
20260507054026 50 0.0 0.0 0.01 0.26 0.02 48 1009.5
20260507053526 50 0.0 0.0 0.01 0.26 0.02 48 1009.6
20260507053026 50 0.0 0.0 0.01 0.26 0.02 47 1009.8
20260507052527 50 0.0 0.0 0.01 0.26 0.02 47 1009.4
20260507052046 50 0.0 0.0 0.01 0.26 0.02 47 1009.6
20260507051526 50 0.0 0.0 0.01 0.26 0.02 47 1009.6
20260507051026 50 0.0 0.0 0.01 0.26 0.02 47 1009.7
20260507050526 50 0.0 0.0 0.01 0.26 0.02 47 1010.1
20260507050026 51 0.0 0.0 0.02 0.26 0.02 47 1010.1
20260507045526 51 0.0 0.0 0.02 0.26 0.02 47 1010.1
20260507045026 51 0.0 0.0 0.02 0.26 0.02 47 1009.8
20260507044526 51 0.0 0.0 0.02 0.26 0.02 47 1010.0
20260507044026 51 0.0 0.0 0.01 0.25 0.01 47 1009.8
20260507043526 51 0.0 0.0 0.02 0.25 0.01 47 1009.9
20260507043046 51 0.0 0.0 0.02 0.25 0.01 47 1009.9
20260507042527 51 0.0 0.0 0.02 0.25 0.01 47 1009.8
20260507042026 51 0.0 0.0 0.03 0.25 0.01 47 1009.8
20260507041526 51 0.0 0.0 0.03 0.25 0.01 47 1009.7
20260507041026 51 0.0 0.0 0.03 0.25 0.01 47 1009.8
20260507040526 51 0.0 0.0 0.04 0.25 0.01 47 1009.7
20260507040027 51 0.0 0.0 0.03 0.24 0.24 47 1009.6
20260507035546 51 0.0 0.0 0.03 0.24 0.24 47 1009.6
20260507035026 51 0.0 0.0 0.04 0.24 0.24 47 1009.7
20260507034526 52 0.0 0.0 0.04 0.24 0.24 47 1009.8
20260507034026 52 0.0 0.0 0.04 0.24 0.24 46 1009.7
20260507033526 52 0.0 0.0 0.04 0.23 0.23 46 1009.8
20260507033026 52 0.0 1.0 0.04 0.23 0.23 46 1010.0
20260507032526 52 350 1.0 3.0 0.04 0.23 0.23 46 1009.9
20260507032027 52 351 1.0 4.0 0.03 0.22 0.22 46 1009.8
20260507031526 52 352 2.0 5.0 0.03 0.22 0.22 46 1009.8
20260507031026 52 348 2.0 6.0 0.03 0.22 0.22 46 1009.6
20260507030526 53 349 4.0 9.0 0.02 0.21 0.21 45 1009.8
20260507030046 53 346 5.0 11.0 0.02 0.21 0.21 46 1009.6
20260507025526 54 349 4.0 8.0 0.02 0.21 0.21 46 1009.5
20260507025026 55 333 1.0 3.0 0.01 0.20 0.20 46 1009.4
20260507024526 55 0.0 1.0 0.01 0.20 0.20 46 1009.5
20260507024026 55 0.0 0.0 0.01 0.20 0.20 46 1009.2
20260507023526 55 0.0 0.0 0.00 0.19 0.19 47 1009.3
20260507023026 55 0.0 1.0 0.01 0.19 0.19 46 1009.3
20260507022547 55 0.0 1.0 0.01 0.19 0.19 46 1009.1
20260507022026 56 0.0 1.0 0.01 0.19 0.19 46 1009.0
20260507021526 56 327 1.0 3.0 0.01 0.19 0.19 46 1008.9
20260507021026 56 0.0 1.0 0.01 0.19 0.19 46 1008.9
20260507020526 56 347 2.0 5.0 0.01 0.19 0.19 46 1008.6
20260507020026 56 355 1.0 4.0 0.01 0.19 0.19 46 1008.7
20260507015526 57 340 1.0 4.0 0.01 0.19 0.19 46 1008.9
20260507015026 57 333 1.0 3.0 0.01 0.19 0.19 46 1008.9
20260507014526 58 0.0 2.0 0.01 0.19 0.19 46 1008.9
20260507014026 58 0.0 2.0 0.01 0.19 0.19 46 1008.7
20260507013526 58 0.0 2.0 0.01 0.19 0.19 46 1008.7
20260507013026 58 14 1.0 3.0 0.00 0.18 0.18 47 1008.6
20260507012526 58 108 2.0 4.0 0.00 0.18 0.18 47 1008.5
20260507012026 58 223 1.0 4.0 0.00 0.18 0.18 47 1008.3
20260507011526 58 91 1.0 7.0 0.00 0.18 0.18 47 1008.3
20260507011026 58 210 1.0 3.0 0.00 0.18 0.18 47 1008.1
20260507010526 58 194 1.0 4.0 0.00 0.18 0.18 47 1008.0
20260507010026 58 183 1.0 4.0 0.00 0.18 0.18 47 1008.0
20260507005526 58 143 1.0 4.0 0.00 0.18 0.18 47 1008.1
20260507005026 58 191 1.0 5.0 0.00 0.18 0.18 47 1008.0
20260507004525 58 162 1.0 3.0 0.00 0.18 0.18 46 1007.8
20260507004026 58 0.0 2.0 0.00 0.18 0.18 47 1007.9
20260507003546 58 172 2.0 6.0 0.00 0.18 0.18 47 1007.9
20260507003026 58 191 2.0 3.0 0.00 0.18 0.18 47 1007.9
20260507002526 58 184 2.0 5.0 0.00 0.18 0.18 47 1007.9
20260507002026 58 216 2.0 3.0 0.00 0.18 0.18 47 1007.8
20260507001526 58 202 1.0 4.0 0.00 0.18 0.18 47 1007.8
20260507001046 58 154 2.0 5.0 0.00 0.18 0.18 46 1007.7
20260507000526 58 238 1.0 4.0 0.00 0.18 0.18 46 1007.8
20260507000026 58 0.0 2.0 0.00 0.18 0.18 46 1007.6
20260506235526 58 191 1.0 4.0 0.00 0.18 0.18 46 1007.6
20260506235026 58 191 1.0 3.0 0.00 0.18 0.18 46 1007.6
20260506234526 58 171 2.0 10.0 0.00 0.18 0.18 46 1007.6
20260506234026 58 258 1.0 2.0 0.00 0.18 0.18 47 1007.5
20260506233526 58 227 2.0 4.0 0.00 0.18 0.18 46 1007.5
20260506233026 58 194 1.0 3.0 0.00 0.18 0.18 46 1007.4
20260506232526 58 167 1.0 3.0 0.01 0.18 0.18 46 1007.4
20260506232026 58 163 2.0 5.0 0.01 0.18 0.18 46 1007.4
20260506231526 58 158 2.0 4.0 0.01 0.18 0.18 46 1007.3
20260506231026 58 137 1.0 4.0 0.02 0.18 0.18 46 1007.3
20260506230526 58 0.0 2.0 0.02 0.18 0.18 46 1007.4
20260506230026 58 204 2.0 7.0 0.02 0.18 0.18 46 1007.2
20260506225525 58 161 1.0 2.0 0.03 0.18 0.18 46 1007.2
20260506225046 58 121 2.0 5.0 0.03 0.18 0.18 46 1007.2
20260506224526 58 175 1.0 3.0 0.03 0.18 0.18 46 1007.2
20260506224026 59 242 2.0 9.0 0.03 0.18 0.18 46 1007.2
20260506223526 59 196 1.0 3.0 0.03 0.18 0.18 46 1007.1
20260506223026 59 202 1.0 3.0 0.04 0.18 0.18 46 1007.1
20260506222526 59 203 1.0 3.0 0.03 0.17 0.17 46 1007.1
20260506222025 59 184 1.0 3.0 0.03 0.17 0.17 46 1007.2
20260506221545 59 218 1.0 5.0 0.03 0.17 0.17 46 1007.2
20260506221026 59 170 1.0 3.0 0.02 0.16 0.16 46 1007.3
20260506220525 59 159 1.0 4.0 0.02 0.16 0.16 46 1007.3
20260506220026 59 161 1.0 4.0 0.02 0.16 0.16 46 1007.4
20260506215525 59 185 1.0 5.0 0.01 0.15 0.15 46 1007.4
20260506215025 59 184 1.0 2.0 0.01 0.15 0.15 46 1007.4
20260506214525 59 184 1.0 3.0 0.01 0.15 0.15 46 1007.5
20260506214026 59 171 1.0 2.0 0.02 0.15 0.15 46 1007.3
20260506213526 59 205 2.0 7.0 0.02 0.15 0.15 46 1007.4
20260506213025 59 199 1.0 3.0 0.02 0.14 0.14 46 1007.7
20260506212526 59 207 1.0 3.0 0.03 0.14 0.14 46 1007.6
20260506212025 59 186 1.0 2.0 0.04 0.14 0.14 46 1007.5
20260506211546 59 179 2.0 6.0 0.04 0.14 0.14 46 1007.5
20260506211025 59 204 1.0 4.0 0.05 0.14 0.14 45 1007.5
20260506210525 59 186 1.0 3.0 0.05 0.14 0.14 45 1007.6
20260506210026 59 190 1.0 2.0 0.05 0.14 0.14 45 1007.6
20260506205526 59 209 1.0 3.0 0.06 0.14 0.14 45 1007.6
20260506205025 59 206 1.0 3.0 0.07 0.14 0.14 45 1007.7
20260506204525 59 178 1.0 2.0 0.07 0.14 0.14 45 1007.8
20260506204025 59 187 1.0 4.0 0.06 0.13 0.13 44 1007.8
20260506203526 59 182 2.0 6.0 0.07 0.13 0.13 44 1007.9
20260506203025 59 195 1.0 3.0 0.06 0.12 0.12 43 1007.9
20260506202525 59 181 2.0 5.0 0.06 0.11 0.11 43 1008.0
20260506202027 59 160 1.0 2.0 0.05 0.10 0.10 42 1007.9
20260506201527 59 144 1.0 3.0 0.05 0.10 0.10 42 1007.9
20260506201027 59 151 1.0 3.0 0.04 0.09 0.09 42 1008.0
20260506200525 59 199 1.0 4.0 0.04 0.09 0.09 41 1008.0
20260506200047 59 264 1.0 3.0 0.04 0.09 0.09 41 1008.1
20260506195527 59 272 1.0 3.0 0.03 0.08 0.08 41 1008.2
20260506195027 59 251 1.0 4.0 0.02 0.07 0.07 40 1008.2
20260506194527 59 180 1.0 4.0 0.02 0.07 0.07 40 1008.3
20260506194027 59 195 2.0 4.0 0.03 0.07 0.07 40 1008.4
20260506193528 60 172 3.0 10.0 0.02 0.06 0.06 40 1008.4
20260506193027 60 174 2.0 6.0 0.02 0.06 0.06 40 1008.4
20260506192527 60 106 1.0 3.0 0.01 0.05 0.05 40 1008.5
20260506192025 60 192 1.0 3.0 0.01 0.05 0.05 39 1008.4
20260506191527 60 188 2.0 6.0 0.01 0.05 0.05 40 1008.5
20260506191027 61 229 1.0 2.0 0.02 0.05 0.05 40 1008.6
20260506190527 61 231 1.0 2.0 0.02 0.05 0.05 39 1008.5
20260506190027 61 248 1.0 3.0 0.02 0.05 0.05 40 1008.4
20260506185527 61 278 1.0 3.0 0.03 0.05 0.05 40 1008.5
20260506185027 61 187 1.0 3.0 0.03 0.05 0.05 40 1008.4
20260506184527 61 164 1.0 2.0 0.03 0.05 0.05 39 1008.3
20260506184027 60 153 1.0 3.0 0.03 0.04 0.04 39 1008.5
20260506183527 60 170 1.0 3.0 0.03 0.04 0.04 39 1008.7
20260506183027 61 190 1.0 2.0 0.04 0.04 0.04 39 1008.7
20260506182527 61 189 1.0 2.0 0.04 0.04 0.04 40 1008.6
20260506182027 61 179 1.0 5.0 0.04 0.04 0.04 41 1008.3
20260506181525 61 177 2.0 3.0 0.04 0.04 0.04 45 1008.3
20260506181027 61 173 2.0 5.0 0.03 0.03 0.03 47 1008.4
20260506180527 61 175 1.0 3.0 0.03 0.03 0.03 48 1008.8
20260506180027 61 184 1.0 3.0 0.03 0.03 0.03 49 1008.9
20260506175527 61 175 2.0 5.0 0.02 0.02 0.02 53 1008.7
20260506175047 61 252 1.0 3.0 0.02 0.02 0.02 54 1009.1
20260506174527 62 218 2.0 5.0 0.02 0.02 0.02 57 1009.2
20260506174027 62 221 1.0 4.0 0.01 0.01 0.01 59 1009.3
20260506173527 62 181 1.0 3.0 0.01 0.01 0.01 60 1009.4
20260506173047 63 176 2.0 4.0 0.00 0.00 0.00 60 1009.6
20260506172527 64 171 1.0 4.0 0.00 0.00 0.00 60 1009.8
20260506172027 64 184 2.0 7.0 0.00 0.00 0.00 59 1010.0
20260506171527 65 168 2.0 8.0 0.00 0.00 0.00 58 1009.9
20260506171027 65 161 2.0 4.0 0.00 0.00 0.00 57 1009.8
20260506170527 66 191 2.0 5.0 0.00 0.00 0.00 57 1009.8
20260506170038 66 202 2.0 4.0 0.00 0.00 0.00 55 1009.6
20260506165607 67 193 3.0 7.0 0.00 0.00 0.00 54 1009.6
20260506165047 68 219 2.0 5.0 0.00 0.00 0.00 53 1009.5
20260506164608 68 183 3.0 6.0 0.00 0.00 0.00 52 1009.4
20260506164027 68 165 3.0 8.0 0.00 0.00 0.00 52 1009.4
20260506163528 68 174 4.0 11.0 0.00 0.00 0.00 52 1009.3
20260506163027 68 154 3.0 5.0 0.00 0.00 0.00 52 1009.6
20260506162528 68 186 3.0 7.0 0.00 0.00 0.00 52 1009.6
20260506162027 68 180 3.0 10.0 0.00 0.00 0.00 52 1009.8
20260506161527 68 180 3.0 6.0 0.00 0.00 0.00 52 1009.9
20260506161027 68 160 3.0 7.0 0.00 0.00 0.00 53 1009.9
20260506160547 67 181 2.0 4.0 0.00 0.00 0.00 53 1010.0
20260506160027 67 191 2.0 4.0 0.00 0.00 0.00 53 1010.1
20260506155547 67 142 1.0 2.0 0.00 0.00 0.00 53 1010.2
20260506155026 67 208 2.0 6.0 0.00 0.00 0.00 53 1010.2
20260506154527 67 220 2.0 6.0 0.00 0.00 0.00 53 1010.2
20260506154027 67 203 2.0 4.0 0.00 0.00 0.00 54 1010.3
20260506153527 67 146 2.0 4.0 0.00 0.00 0.00 53 1010.3
20260506153027 67 205 1.0 3.0 0.00 0.00 0.00 53 1010.3
20260506152547 66 192 2.0 4.0 0.00 0.00 0.00 53 1010.3
20260506152027 66 174 2.0 6.0 0.00 0.00 0.00 54 1010.4
20260506151547 66 171 2.0 6.0 0.00 0.00 0.00 53 1010.5
20260506151027 65 145 1.0 3.0 0.00 0.00 0.00 54 1010.5
20260506150527 65 246 2.0 3.0 0.00 0.00 0.00 54 1010.6
20260506150027 65 223 1.0 8.0 0.00 0.00 0.00 54 1010.7
20260506145527 65 225 1.0 4.0 0.00 0.00 0.00 53 1010.6
20260506145027 65 173 2.0 5.0 0.00 0.00 0.00 54 1010.5
20260506144547 65 177 1.0 3.0 0.00 0.00 0.00 54 1010.6
20260506144026 65 159 1.0 3.0 0.00 0.00 0.00 54 1010.8
20260506143526 65 231 1.0 4.0 0.00 0.00 0.00 54 1010.8
20260506143026 64 191 3.0 7.0 0.00 0.00 0.00 54 1010.7
20260506142526 64 183 2.0 4.0 0.00 0.00 0.00 54 1010.8
20260506142027 64 207 2.0 5.0 0.00 0.00 0.00 54 1010.7
20260506141527 64 189 3.0 9.0 0.00 0.00 0.00 54 1010.7
20260506141027 65 253 4.0 10.0 0.00 0.00 0.00 53 1010.9
20260506140527 65 197 1.0 4.0 0.00 0.00 0.00 54 1010.8
20260506140027 64 196 2.0 5.0 0.00 0.00 0.00 53 1010.7
20260506135527 64 185 2.0 5.0 0.00 0.00 0.00 53 1010.6
20260506135026 64 189 3.0 6.0 0.00 0.00 0.00 53 1010.7
20260506134527 64 179 2.0 8.0 0.00 0.00 0.00 53 1010.5
20260506134027 64 209 2.0 5.0 0.00 0.00 0.00 53 1010.7
20260506133527 64 186 1.0 3.0 0.00 0.00 0.00 53 1010.4
20260506133027 63 160 1.0 4.0 0.00 0.00 0.00 52 1010.6
20260506132527 63 178 1.0 5.0 0.00 0.00 0.00 52 1010.6
20260506132027 63 186 2.0 5.0 0.00 0.00 0.00 52 1010.7
20260506131527 63 177 1.0 3.0 0.00 0.00 0.00 53 1010.7
20260506131027 63 183 2.0 4.0 0.00 0.00 0.00 53 1010.7
20260506130527 63 184 2.0 5.0 0.00 0.00 0.00 52 1010.6
20260506130027 62 179 2.0 7.0 0.00 0.00 0.00 52 1010.8
20260506125527 62 176 2.0 5.0 0.00 0.00 0.00 52 1010.8
20260506125027 62 174 1.0 5.0 0.00 0.00 0.00 52 1011.0
20260506124527 62 166 2.0 4.0 0.00 0.00 0.00 52 1010.9
20260506124026 62 197 1.0 6.0 0.00 0.00 0.00 52 1011.1
20260506123526 62 193 2.0 4.0 0.00 0.00 0.00 52 1011.2
20260506123026 62 223 2.0 6.0 0.00 0.00 0.00 52 1011.2
20260506122526 62 122 1.0 7.0 0.00 0.00 0.00 53 1011.3
20260506122047 62 189 2.0 4.0 0.00 0.00 0.00 52 1011.0
20260506121527 62 162 1.0 5.0 0.00 0.00 0.00 52 1010.8
20260506121027 62 191 2.0 6.0 0.00 0.00 0.00 52 1011.1
20260506120526 62 210 2.0 4.0 0.00 0.00 0.00 51 1011.1
20260506120027 62 229 2.0 7.0 0.00 0.00 0.00 51 1010.8
20260506115526 62 196 2.0 5.0 0.00 0.00 0.00 51 1011.0
20260506115026 62 188 2.0 5.0 0.00 0.00 0.00 51 1011.1
20260506114527 62 167 2.0 5.0 0.00 0.00 0.00 50 1011.3
20260506114046 61 259 2.0 5.0 0.00 0.00 0.00 50 1011.2
20260506113546 61 184 2.0 8.0 0.00 0.00 0.00 49 1011.1
20260506113027 61 184 2.0 4.0 0.00 0.00 0.00 48 1011.0
20260506112526 61 172 2.0 5.0 0.00 0.00 0.00 47 1011.0
20260506112026 60 178 2.0 9.0 0.00 0.00 0.00 47 1010.9
20260506111607 60 160 1.0 4.0 0.00 0.00 0.00 46 1011.5
20260506111026 60 199 2.0 7.0 0.00 0.00 0.00 45 1011.5
20260506110526 59 232 1.0 3.0 0.00 0.00 0.00 45 1011.5
20260506110026 59 285 1.0 3.0 0.00 0.00 0.00 45 1011.5
20260506105526 59 210 2.0 7.0 0.00 0.00 0.00 45 1011.4
20260506105026 59 0.0 3.0 0.00 0.00 0.00 44 1011.4
20260506104546 58 183 1.0 3.0 0.00 0.00 0.00 44 1011.4
20260506104046 58 0.0 2.0 0.00 0.00 0.00 44 1011.4
20260506103526 58 181 1.0 3.0 0.00 0.00 0.00 44 1011.3
20260506103047 58 184 1.0 2.0 0.00 0.00 0.00 45 1011.1
20260506102526 58 178 1.0 3.0 0.00 0.00 0.00 45 1011.2
20260506102026 57 187 1.0 4.0 0.00 0.00 0.00 45 1011.0
20260506101526 57 217 1.0 4.0 0.00 0.00 0.00 45 1011.1
20260506101026 57 200 1.0 3.0 0.00 0.00 0.00 47 1011.1
20260506100526 57 0.0 0.0 0.00 0.00 0.00 47 1011.1
20260506100026 57 0.0 0.0 0.00 0.00 0.00 47 1010.9